Regional Weather Roundup
Issued by NWS

Home | Current Version | Previous Version | Graphics & Text | Print | Product List | Glossary On
Versions: 1 2 3 4 5 6 7 8 9 10 11 12 13 14 15 16 17 18 19 20 21 22 23 24 25 26 27 28
000
ASUS45 KTFX 271510
RWRMT
MONTANA REGIONAL WEATHER ROUNDUP
NATIONAL WEATHER SERVICE GREAT FALLS MT
900 AM MDT FRI MAY 27 2016

NOTE: "FAIR" INDICATES FEW OR NO CLOUDS BELOW 12000 FEET WITH NO
SIGNIFICANT WEATHER AND/OR OBSTRUCTIONS TO VISIBILITY.

MTZ001>007-043-271600-
WEST OF THE DIVIDE

CITY           SKY/WX    TMP DP  RH WIND       PRES   REMARKS
KALISPELL      CLOUDY    51  50  96 SE7       29.91R
MISSOULA       PTSUNNY   50  46  86 SW8       29.97R
BUTTE          CLOUDY    45  40  82 CALM      29.97S
MULLAN PASS    LGT SNOW  33  32  96 SW3       29.97S FOG
ANACONDA         N/A     54  39  58 SW7       29.94F
DEER LODGE       N/A     50  45  81 CALM      29.95F
EUREKA           N/A     52  45  76 SE6       29.90R
HAMILTON         N/A     52  41  66 S3        29.96R
LIBBY            N/A     54  41  62 CALM      29.93R
$$

MTZ008-052>055-271600-
SOUTHWEST MONTANA

CITY           SKY/WX    TMP DP  RH WIND       PRES   REMARKS
BOZEMAN        LGT RAIN  47  44  90 SE7       29.97R FOG
DILLON         PTSUNNY   49  42  77 N3        29.95S
W YELLOWSTONE  CLOUDY    39  37  93 CALM      30.02S
ENNIS          CLOUDY    50  41  71 S5        30.00F
$$

MTZ009-010-012-014-046-048-049-054-271600-
EAST SLOPES AND CENTRAL MONTANA

CITY           SKY/WX    TMP DP  RH WIND       PRES   REMARKS
CUT BANK       CLOUDY    54  42  64 W18       29.85S
GREAT FALLS    MOSUNNY   57  45  64 SW9       29.88S
MALMSTROM AFB  CLOUDY    54  47  79 SW5       29.89R
HELENA         CLOUDY    51  46  83 CALM      29.93R
CHOTEAU          N/A     55  45  67 CALM      29.88S
$$

MTZ011-013-016-021-045-047-050-051-271600-
NORTH CENTRAL MONTANA

CITY           SKY/WX    TMP DP  RH WIND       PRES   REMARKS
HAVRE          SUNNY     57  49  74 E9        29.87S
LEWISTOWN      SUNNY     57  44  62 SE6       29.89F
N BAR RANCH      N/A     54  46  76 E5        29.92F
CHINOOK          N/A     57  52  82 E9        29.88S
$$

MTZ017>020-022>027-061-062-271600-
NORTHEAST MONTANA

CITY           SKY/WX    TMP DP  RH WIND       PRES   REMARKS
GLASGOW        SUNNY     55  48  77 SE3       29.90F
JORDAN           N/A     54  49  83 N6        29.89S
SIDNEY         MOSUNNY   57  51  80 NE5       29.88S
WOLF POINT     MOSUNNY   61  51  70 E7        29.89S
POPLAR           N/A     57  52  82 NE6       29.89R
$$

MTZ028>42-056>058-271600-
SOUTHCENTRAL AND SOUTHEAST MONTANA

CITY           SKY/WX    TMP DP  RH WIND       PRES   REMARKS
BAKER          PTSUNNY   57  49  74 NW7       29.88S
BILLINGS       MOSUNNY   54  45  71 SW5       29.91S
LIVINGSTON     CLOUDY    53  39  59 W23G29    29.92S
MILES CITY     CLOUDY    54  50  86 W5        29.87F
FORSYTH          N/A     52  52 100 W9        29.88F
$$

REGIONAL REPORTS...DAKOTAS

CITY           SKY/WX    TMP DP  RH WIND       PRES   REMARKS
WILLISTON      PTSUNNY   63  50  62 NE3       29.87S
MINOT          CLOUDY    62  53  72 NW8       29.82F
DICKINSON      SUNNY     60  47  61 N6        29.84S
BEACH            N/A     57  57 100 NW6       29.89F
CROSBY         CLOUDY    55  55 100 NW6       29.89S
WATFORD CITY   PTSUNNY   55  52  88 CALM      29.88S
BISMARCK       SUNNY     61  52  72 N9        29.84S
GRAND FORKS    PTSUNNY   64  54  69 VRB3      29.81R
FARGO          PTSUNNY   67  58  72 N8        29.79R
BUFFALO SD       N/A     60  46  59 NW8       29.80S
RAPID CITY     MOSUNNY   58  45  62 N10       29.85S
$$

REGIONAL REPORTS...WYOMING/IDAHO/WASHINGTON

CITY           SKY/WX    TMP DP  RH WIND       PRES   REMARKS
GILLETTE       SUNNY     56  45  66 N8        29.90F
SHERIDAN       SUNNY     57  45  64 CALM      29.91S
BUFFALO WY     SUNNY     56  40  55 CALM      29.94F
CODY           SUNNY     55  37  50 SW17      29.93F
YELLOWSTONE LA   N/A     38  35  89 CALM      30.07S
IDAHO FALLS    MOSUNNY   52  40  63 SW16G23   29.96S
SALMON         MOSUNNY   52  39  62 NE5       29.93S
BOISE          MOSUNNY   52  36  54 NW14      30.02R
SPOKANE        CLOUDY    46  38  73 SW15      29.98R
$$

REGIONAL REPORTS...ALBERTA

CITY           SKY/WX    TMP DP  RH WIND       PRES   REMARKS
EDMONTON       CLOUDY    54  48  82 N2        29.78S
CALGARY        CLOUDY    46  43  87 N9        29.81R
LETHBRIDGE     PTSUNNY   55  43  62 SW9       29.82R
WATERTON GATE    N/A     52  37  58 SW12G17     N/A
CARDSTON         N/A     59  37  44 SW6         N/A
$$

REGIONAL REPORTS...SASKATCHEWAN

CITY           SKY/WX    TMP DP  RH WIND       PRES   REMARKS
SWIFT CURRENT  SUNNY     61  50  67 S8        29.89S
REGINA         MOSUNNY   64  52  63 E7        29.89S
SASKATOON      MOSUNNY   64  52  63 E7        29.90R
VAL MARIE        N/A     55  46  71 S8          N/A
ROCKGLEN         N/A     57  48  72 E5          N/A
$$




USA.gov is the U.S. government's official web portal to all federal, state and local government web resources and services.